Temp_Advection
nan nan nan nan nan nan nan nan nan nan nan nan nan nan nan nan nan nan nan nan nan nan
nan 1 1 1 1 0 1 1 1 0 0 1 0 0 0 0 0 0 0 0 0 nan
nan 1 0 1 0 0 0 1 0 0 1 1 0 0 0 0 0 0 0 0 0 nan
nan 1 1 1 -0 0 0 1 1 1 1 0 0 0 0 0 0 0 0 0 0 nan
nan 1 1 0 1 0 1 1 1 1 1 1 1 0 0 0 0 0 0 0 0 nan
nan 1 2 1 1 1 1 1 1 1 1 1 1 0 0 0 0 0 0 0 0 nan
nan 2 1 1 0 1 1 1 1 1 1 1 0 0 0 0 0 0 0 0 0 nan
nan 1 -0 1 0 1 1 1 1 1 1 0 0 0 0 0 0 0 0 0 0 nan
nan 0 1 2 1 1 1 1 1 1 0 0 0 0 0 0 0 0 0 0 0 nan
nan 1 2 2 1 1 1 1 0 0 0 1 0 0 0 0 0 0 0 0 0 nan
nan 1 1 1 1 1 1 0 0 1 1 0 0 0 0 0 0 0 0 0 0 nan
nan 1 0 0 0 0 1 0 1 1 1 0 0 0 0 0 0 0 -0 0 0 nan
nan 1 1 0 1 0 0 1 1 0 0 0 0 0 0 0 0 0 0 -0 -0 nan
nan nan nan nan nan nan nan nan nan nan nan nan nan nan nan nan nan nan nan nan nan nan
Wind_Speed
42 37 31 27 26 26 26 25 23 21 19 17 15 14 11 9 8 6 5 5 4 3
43 39 32 27 27 26 25 24 23 22 20 18 16 14 12 10 9 8 6 5 4 4
45 39 34 30 27 26 25 25 24 22 21 19 17 14 13 11 9 8 7 5 5 4
45 42 35 28 29 27 26 24 24 23 22 19 17 15 13 11 9 8 7 6 5 4
46 43 35 32 30 27 24 25 25 23 21 19 17 15 14 11 10 9 8 7 5 4
46 39 40 36 30 25 26 25 22 21 19 18 17 16 13 11 9 9 8 6 5 5
44 43 38 34 32 34 29 25 23 22 22 19 17 14 13 12 10 7 7 5 6 7
40 37 36 34 33 30 29 29 29 26 21 20 16 16 13 11 8 8 7 7 8 10
40 39 35 35 33 33 31 25 25 26 23 18 17 13 10 8 5 8 8 8 9 11
36 33 35 35 38 32 31 29 28 23 19 18 15 11 9 6 7 9 8 8 9 9
36 36 38 35 34 32 29 30 24 20 19 16 12 10 7 7 8 8 7 8 9 9
36 38 38 35 31 32 30 24 23 20 17 13 10 8 7 6 6 6 7 8 9 9
40 39 37 33 32 28 25 24 21 17 12 10 8 7 6 5 6 7 7 8 8 10
39 36 35 33 29 28 24 20 18 14 10 8 8 5 6 6 5 7 7 7 7 8
Wind_Direction
220 220 218 217 216 216 214 210 205 203 199 201 201 198 196 196 197 197 199 201 209 223
214 214 213 212 215 210 211 209 205 200 202 202 202 202 201 203 205 207 211 214 218 241
209 208 206 210 210 207 209 207 201 202 203 202 202 204 206 207 209 213 215 217 224 241
203 201 204 203 205 204 205 203 202 201 203 202 202 203 207 207 209 214 213 216 222 229
199 195 193 195 197 197 197 197 200 200 201 204 202 204 207 206 204 208 209 206 214 238
195 190 190 190 192 195 197 198 197 196 198 203 202 198 197 197 199 196 202 214 243 267
188 192 189 186 187 186 187 204 211 213 202 198 199 198 191 185 191 211 226 242 264 277
188 184 179 175 179 186 191 191 192 193 191 189 190 186 185 190 197 226 243 260 278 285
177 177 177 185 188 181 180 185 188 183 182 178 189 186 188 198 218 247 263 278 287 295
179 176 179 179 175 176 176 177 179 173 175 187 189 185 204 216 241 256 269 280 286 298
174 173 176 174 168 167 173 175 169 174 180 186 190 202 224 240 251 265 282 293 299 298
175 175 172 171 168 167 168 161 169 175 183 191 204 221 239 254 266 279 290 295 296 295
170 171 169 167 165 163 164 169 173 178 187 202 221 235 249 267 274 281 284 297 296 295
167 165 166 164 163 163 165 171 174 182 192 209 222 237 271 278 277 276 276 280 287 280
Height
1486 1492 1496 1500 1504 1508 1512 1516 1520 1522 1526 1529 1532 1533 1534 1536 1537 1539 1540 1541 1543 1544
1475 1484 1490 1496 1502 1505 1509 1512 1517 1520 1523 1527 1530 1531 1532 1534 1535 1536 1538 1539 1540 1541
1466 1476 1482 1490 1497 1500 1506 1510 1514 1517 1521 1524 1527 1529 1531 1533 1534 1535 1536 1536 1537 1539
1460 1466 1474 1484 1492 1495 1500 1507 1511 1514 1519 1523 1524 1527 1529 1530 1531 1533 1534 1534 1535 1536
1454 1458 1464 1476 1487 1492 1496 1504 1510 1512 1517 1521 1522 1525 1527 1528 1529 1531 1532 1533 1533 1534
1451 1452 1461 1468 1478 1482 1494 1503 1508 1511 1514 1520 1522 1522 1525 1526 1529 1530 1531 1531 1531 1531
1441 1447 1456 1460 1470 1482 1487 1497 1506 1511 1512 1516 1522 1522 1521 1523 1526 1529 1531 1529 1529 1528
1440 1450 1456 1460 1471 1478 1486 1494 1495 1506 1512 1513 1519 1521 1521 1522 1521 1527 1527 1525 1525 1526
1439 1446 1451 1462 1469 1472 1482 1494 1500 1501 1507 1510 1518 1520 1519 1519 1519 1525 1525 1522 1522 1521
1439 1443 1455 1460 1464 1473 1482 1488 1500 1500 1500 1510 1518 1516 1519 1516 1519 1522 1521 1519 1519 1517
1437 1447 1459 1464 1465 1473 1483 1491 1490 1497 1504 1511 1512 1514 1515 1515 1517 1517 1516 1516 1515 1516
1438 1447 1455 1461 1467 1476 1484 1482 1493 1500 1505 1506 1508 1510 1511 1513 1512 1512 1511 1511 1511 1514
1441 1449 1457 1465 1471 1473 1479 1489 1495 1499 1502 1503 1505 1507 1507 1507 1508 1509 1508 1507 1509 1510
1441 1449 1457 1463 1469 1475 1481 1489 1491 1495 1498 1500 1502 1501 1501 1502 1504 1506 1506 1506 1507 1508